sat.trackr.live / text

‹ back to catalog

ONEWEB-0520

NORAD 54138 · 2022-138AB

PAYLOAD ACTIVE UNKNOWN

§ Identity

Operator
Country
UK
Launch date
2022-10-22
Launch site
SRILR
Launch vehicle
Mass (kg)
RCS (m²)

Purposes: comms

External: N2YO · Heavens-Above · Gunter

§ Orbital elements

Epoch: 2026-05-25T03:46:36.062112Z

Period
109.11 min
Inclination
87.9158°
Eccentricity
0.0001631
Mean motion
13.19726631 rev/d
Perigee alt
1,184.5 km
Apogee alt
1,187.0 km
Semi-major
7,563.9 km
B*
2.2813e-4
RAAN
309.5551°
Arg perigee
85.1469°
Mean anomaly
274.9850°
Rev number
17,378

§ Raw data

ONEWEB-05201 54138U 22138AB  26145.15736183  .00000104  00000+0  22813-3 0  99922 54138  87.9158 309.5551 0001631  85.1469 274.9850 13.19726631173783

JSON: /api/v1/satellites/54138 · /tle

For live sub-satellite position, see the globe view (requires WebGL).

§ Visibility from observer

Set your observer location to see the next 7 days of passes ≥ 10°. The values pass through the URL so the page stays shareable.

No JS? Fill the form by hand. The geolocation button needs JavaScript.